TimeEST,TemperatureF,Dew PointF,Humidity,Sea Level PressureIn,VisibilityMPH,Wind Direction,Wind SpeedMPH,Gust SpeedMPH,PrecipitationIn,Events,Conditions,WindDirDegrees,DateUTC
12:53 AM,23.0,18.0,81,30.51,10.0,Calm,Calm,-,N/A,,Clear,0,2013-01-11 05:53:00
1:53 AM,21.9,17.1,82,30.52,10.0,Calm,Calm,-,N/A,,Clear,0,2013-01-11 06:53:00
2:53 AM,21.0,17.1,85,30.51,10.0,Calm,Calm,-,N/A,,Clear,0,2013-01-11 07:53:00
3:53 AM,19.9,15.1,81,30.50,10.0,Calm,Calm,-,N/A,,Clear,0,2013-01-11 08:53:00
4:53 AM,19.0,14.0,81,30.50,10.0,Calm,Calm,-,N/A,,Clear,0,2013-01-11 09:53:00
5:53 AM,19.0,15.1,85,30.50,10.0,Calm,Calm,-,N/A,,Clear,0,2013-01-11 10:53:00
6:53 AM,17.1,14.0,88,30.52,10.0,Calm,Calm,-,N/A,,Clear,0,2013-01-11 11:53:00
7:53 AM,21.9,16.0,78,30.55,10.0,Calm,Calm,-,N/A,,Clear,0,2013-01-11 12:53:00
8:53 AM,27.0,18.0,69,30.53,10.0,ENE,3.5,-,N/A,,Clear,70,2013-01-11 13:53:00
9:53 AM,28.9,17.1,61,30.53,10.0,ENE,3.5,-,N/A,,Clear,70,2013-01-11 14:53:00
10:53 AM,33.1,16.0,50,30.49,10.0,Calm,Calm,-,N/A,,Clear,0,2013-01-11 15:53:00
11:53 AM,35.1,15.1,44,30.44,10.0,Calm,Calm,-,N/A,,Clear,0,2013-01-11 16:53:00
12:53 PM,35.1,16.0,46,30.43,10.0,Calm,Calm,-,N/A,,Clear,0,2013-01-11 17:53:00
1:53 PM,36.0,15.1,43,30.40,10.0,Calm,Calm,-,N/A,,Clear,0,2013-01-11 18:53:00
3:53 PM,35.1,19.0,52,30.37,10.0,Calm,Calm,-,N/A,,Clear,0,2013-01-11 20:53:00
4:53 PM,33.1,21.9,64,30.35,10.0,Calm,Calm,-,N/A,,Mostly Cloudy,0,2013-01-11 21:53:00
5:53 PM,33.1,21.9,64,30.35,10.0,Calm,Calm,-,N/A,,Overcast,0,2013-01-11 22:53:00
6:53 PM,32.0,24.1,73,30.34,10.0,Calm,Calm,-,N/A,,Overcast,0,2013-01-11 23:53:00
7:53 PM,32.0,26.1,79,30.33,10.0,Calm,Calm,-,N/A,,Overcast,0,2013-01-12 00:53:00
8:53 PM,32.0,26.1,79,30.32,10.0,Calm,Calm,-,N/A,,Overcast,0,2013-01-12 01:53:00
9:53 PM,33.1,27.0,78,30.30,10.0,Calm,Calm,-,N/A,,Overcast,0,2013-01-12 02:53:00
10:18 PM,33.8,28.4,81,30.29,10.0,Calm,Calm,-,N/A,,Overcast,0,2013-01-12 03:18:00
10:39 PM,33.8,26.6,75,30.28,10.0,Calm,Calm,-,N/A,,Overcast,0,2013-01-12 03:39:00
10:53 PM,33.1,27.0,78,30.28,10.0,Calm,Calm,-,N/A,,Overcast,0,2013-01-12 03:53:00
11:24 PM,33.8,28.4,81,30.26,10.0,Calm,Calm,-,N/A,,Overcast,0,2013-01-12 04:24:00
11:53 PM,33.1,28.9,85,30.27,10.0,Calm,Calm,-,N/A,,Overcast,0,2013-01-12 04:53:00